Helicity
268 268 243 281 236 205 82 112 277 273 330 157 218 225 205 185 171 128 120 101 96 85 57 42 28 19 11 16 23 33 6 3
274 211 113 101 76 44 192 118 255 270 257 138 292 317 216 167 141 131 108 96 58 43 40 34 30 15 5 9 21 11 -6 0
199 176 119 27 124 107 128 133 166 179 113 256 236 280 247 183 162 146 124 92 48 46 59 40 31 10 15 22 3 -15 -1 -2
66 48 42 72 185 155 80 237 415 284 200 217 294 312 211 248 185 165 145 122 85 44 61 62 48 15 28 13 3 -5 2 -6
79 90 116 140 173 150 168 85 108 247 185 189 323 246 272 257 222 182 166 143 117 82 59 44 -1 2 15 -7 -9 -12 -15 -23
109 101 119 136 136 156 124 123 173 193 141 170 267 250 196 208 181 145 122 96 78 42 7 36 38 41 12 10 4 -13 -28 -29
97 99 103 117 98 139 196 252 262 21 41 166 212 170 151 176 136 107 131 79 84 72 86 76 62 36 19 22 2 -11 -22 -25
115 105 99 78 90 113 113 71 -22 33 104 138 150 119 123 175 102 143 82 68 69 22 76 74 39 28 27 28 14 -9 -14 -25
133 60 112 69 98 70 52 81 163 191 257 175 195 161 154 96 172 61 64 71 -15 129 89 61 49 46 41 16 7 -1 5 -4
134 101 109 152 97 84 118 145 191 221 233 192 182 220 216 102 33 45 62 11 6 81 48 50 60 43 28 12 7 23 18 16
168 58 125 138 124 105 126 132 170 173 263 221 168 202 103 40 52 31 31 5 17 84 46 51 41 38 26 24 24 27 18 19
90 34 122 113 105 198 145 116 148 89 97 195 121 78 60 28 39 54 32 22 59 86 46 39 46 38 38 26 24 28 31 38
61 65 79 106 156 179 133 121 130 102 51 84 169 108 125 109 66 39 42 42 60 60 58 52 61 66 83 59 40 34 44 61
81 46 27 47 95 117 157 229 271 282 229 182 228 189 108 126 48 36 37 73 64 69 77 88 68 103 95 88 68 73 112 121
112 79 66 51 44 188 245 207 343 441 274 288 297 200 122 47 50 62 66 80 80 69 102 107 105 98 115 108 97 88 82 98
67 61 78 51 102 124 68 60 125 139 150 255 150 52 83 89 69 57 56 56 35 100 99 141 153 142 150 153 182 181 139 102
74 52 34 38 97 96 56 83 -7 -38 70 55 -51 -84 -40 -61 -41 -17 26 36 21 -43 124 132 141 182 230 213 239 225 221 215
66 61 26 4 26 -7 -15 -16 -14 -32 -41 -29 -98 -118 -84 -16 -7 -57 4 43 14 67 84 141 158 160 232 282 296 212 234 263
97 82 48 16 -10 -28 -52 -80 -95 -66 -41 -55 -104 -141 -151 -60 -37 -26 13 59 103 137 147 146 166 158 219 261 287 270 265 251
193 134 90 62 14 -54 -73 -81 -106 -143 -183 -163 -168 -174 -99 -140 -156 -36 11 86 104 135 184 147 122 119 142 209 221 260 286 250
Wind_Speed
9 7 10 12 25 33 35 29 33 27 26 31 33 28 23 20 19 20 25 29 30 31 32 35 36 37 35 31 32 33 33 29
14 24 24 28 24 26 32 29 48 36 39 35 35 31 27 21 20 22 24 28 31 30 33 34 34 35 36 32 27 28 28 26
9 14 19 25 22 39 29 37 47 45 43 38 33 31 28 22 19 23 21 24 25 28 30 29 33 32 31 31 24 23 22 20
11 8 6 7 17 24 24 29 38 41 44 39 34 32 32 24 20 22 20 21 21 25 27 26 23 26 25 25 24 21 17 17
9 7 7 10 12 20 36 7 38 43 39 37 34 34 30 24 20 19 15 19 17 22 16 17 22 26 23 22 21 18 14 12
9 8 7 10 11 18 27 12 29 37 41 36 40 33 27 23 21 17 15 15 18 21 18 19 13 20 21 20 16 13 9 11
9 8 7 8 6 10 20 13 35 63 35 36 35 33 28 25 20 15 12 13 16 19 16 18 14 16 16 16 14 10 11 11
9 7 6 6 3 9 10 59 67 46 30 33 36 32 31 26 18 9 9 9 8 12 16 16 13 14 12 10 9 9 10 11
11 8 7 7 8 11 15 38 42 41 34 30 30 29 28 20 15 15 10 6 4 12 17 15 11 8 8 7 7 8 9 10
10 9 15 8 7 12 16 31 35 37 28 27 28 23 18 22 19 13 9 5 6 12 13 11 10 10 13 18 15 12 11 10
15 14 7 6 8 11 18 30 28 27 29 28 26 22 23 22 17 12 7 5 2 7 7 9 9 16 20 25 25 24 26 24
20 16 9 9 9 10 21 15 23 22 34 29 26 25 27 19 15 15 7 7 6 7 8 16 19 25 28 31 31 33 32 27
28 23 20 19 11 10 17 20 30 24 32 27 28 25 26 23 17 16 14 16 19 15 18 21 34 34 35 41 45 45 42 33
35 40 41 26 20 10 20 22 25 23 27 25 28 32 27 26 21 19 29 27 27 19 38 36 38 27 36 37 43 50 43 31
35 42 48 48 41 11 25 25 32 34 35 30 26 33 30 27 30 29 34 29 32 61 39 34 33 30 33 35 38 44 46 43
32 37 43 45 44 45 48 55 42 26 23 22 22 24 34 41 45 56 51 64 69 51 20 25 31 28 41 41 45 44 48 53
32 34 39 38 44 52 53 53 60 62 30 57 53 63 76 77 75 71 62 70 74 43 23 32 36 39 39 47 46 50 53 54
31 34 35 38 42 46 50 50 55 58 59 66 71 72 75 76 72 73 69 68 73 70 69 50 29 30 37 38 42 50 47 43
34 37 41 43 44 46 48 49 52 55 58 61 71 75 79 78 72 70 68 69 66 60 50 51 35 31 34 37 38 38 43 44
39 43 44 43 41 41 41 40 45 47 49 49 60 62 65 51 29 46 47 55 57 56 49 52 45 43 46 43 41 40 39 42
Wind_Direction
248 266 291 313 304 304 304 226 207 178 172 182 173 174 171 163 145 127 108 103 103 100 95 90 85 81 76 70 69 67 66 60
278 285 286 307 314 320 295 221 193 183 168 178 184 171 177 164 150 128 111 106 109 105 99 92 85 81 79 69 58 61 59 57
5 303 297 312 334 319 317 190 202 175 161 180 169 178 187 185 163 131 115 106 109 106 97 90 87 81 74 70 58 53 51 46
52 45 110 19 1 17 35 163 184 187 184 177 180 185 193 183 161 133 117 106 102 105 98 90 74 69 64 66 59 51 40 40
89 79 56 32 51 70 90 221 163 181 183 192 176 186 193 183 155 137 128 107 100 101 93 77 77 73 69 63 61 52 33 23
24 43 54 29 41 81 96 149 142 169 193 187 179 179 170 166 157 152 137 114 105 99 94 77 64 70 71 64 47 43 11 17
70 62 60 80 48 103 118 206 135 139 161 174 172 158 164 171 168 161 144 125 101 87 70 86 77 72 69 64 53 28 22 13
44 89 41 90 96 128 178 182 145 140 165 165 156 157 147 178 162 180 168 126 103 76 75 82 78 72 60 45 32 21 33 30
91 93 93 99 132 156 177 209 204 199 196 187 181 158 154 160 187 195 184 121 96 65 69 68 56 357 350 343 355 19 31 35
45 83 111 109 174 181 188 213 213 206 193 184 188 178 182 166 174 193 190 127 63 72 67 48 353 339 315 292 303 323 337 357
53 95 113 152 161 165 209 221 218 206 188 172 175 183 174 165 199 198 199 141 70 54 360 346 357 310 299 288 291 298 299 313
71 93 97 171 194 201 223 203 220 191 166 203 190 183 168 194 209 234 226 256 284 315 317 310 302 287 288 289 292 295 302 312
98 110 117 134 184 185 216 216 227 199 169 195 187 191 214 221 224 237 251 265 274 281 293 293 280 279 285 284 284 287 296 308
100 122 130 134 156 232 242 222 224 204 214 195 210 219 220 230 228 242 258 269 274 277 270 280 282 294 295 300 299 294 300 305
113 125 138 139 142 226 244 234 236 230 228 221 225 239 237 229 243 254 262 268 265 242 274 284 294 299 298 304 308 303 315 317
109 121 132 139 137 142 147 154 156 222 205 214 200 225 241 243 247 244 247 239 234 267 286 292 295 299 297 296 298 306 310 318
121 123 133 131 139 148 147 148 160 162 156 163 164 173 199 201 211 232 250 244 240 201 289 290 292 295 295 299 300 302 303 307
130 135 137 139 143 148 153 152 159 165 168 177 186 192 206 227 238 238 244 249 250 260 265 287 288 290 293 296 298 303 307 310
149 150 154 154 154 156 159 164 171 176 179 183 193 201 213 241 249 253 259 264 270 279 287 288 288 283 286 292 296 298 305 310
161 164 164 163 162 164 166 168 173 178 183 187 195 200 256 264 221 271 278 284 285 286 289 290 290 291 295 296 296 298 301 309